Location: Unnamed
(23.5608°S, 46.6833°W)
Time: 10:32:50
(UTC-03:00)

ZACube-1 - Visible Passes

Search period start: 09 December 2025 00:00
Search period end: 19 December 2025 00:00
Orbit: 541 x 599 km, 97.8° (Epoch: 09 December)

Date Brightness Start Highest point End Pass type
(mag) Time Alt. Az. Time Alt. Az. Time Alt. Az.
09 Dec ? 02:26:35 22° S 02:26:35 22° S 02:28:07 10° S visible
10 Dec ? 02:28:23 22° S 02:28:23 22° S 02:29:56 10° S visible
11 Dec ? 02:30:10 22° S 02:30:10 22° S 02:31:45 10° S visible
12 Dec ? 02:31:57 23° S 02:31:57 23° S 02:33:32 10° S visible
13 Dec ? 02:33:43 23° S 02:33:43 23° S 02:35:19 10° S visible
14 Dec ? 02:35:29 23° S 02:35:29 23° S 02:37:05 10° S visible
15 Dec ? 02:37:14 23° S 02:37:14 23° S 02:38:51 10° S visible
16 Dec ? 02:38:59 23° S 02:38:59 23° S 02:40:35 10° S visible
17 Dec ? 02:40:43 23° S 02:40:43 23° S 02:42:19 10° S visible
18 Dec ? 02:42:26 23° SSW 02:42:26 23° SSW 02:44:02 10° SSW visible
